User: anonymous   Login
Location: Borojevi?i
(45.0486°N, 16.2297°E)
Time: 15:44:01
(UTC+00:00)
Language:

Nimbus 7 Rocket - Orbit

View from above orbital plane
View from above orbital plane
View from above satellite
View from above satellite

Ground track
Ground track

The orbit data is extracted from the following two-line orbital elements,

1 11081U 78098B   20293.17811201 -.00000006  00000-0  34099-4 0  9996
2 11081  99.4025 193.1396 0028141 267.8139  91.9794 13.85692975961725
Epoch (UTC): 19 October 2020 04:16:28
Eccentricity: 0.0028141
inclination: 99.4025°
perigee height: 923 km
apogee height: 964 km
right ascension of ascending node: 193.1396°
argument of perigee: 267.8139°
revolutions per day: 13.85692975
mean anomaly at epoch: 91.9794°
orbit number at epoch: 96172

The dashed part of the orbit path shows where the satellite is in the earth's shadow,  

DLR